Total_Precipitation_Accumulation
0.00 0.00 0.00 0.00 0.00 0.00 0.00 0.00 0.00 0.01 0.05 0.13 0.19 0.14 0.10 0.06 0.02 0.01 0.01 0.02 0.01 0.16 0.25 0.33 0.41 0.23 0.12 0.09 0.01 0.03 0.01 0.00
0.00 0.00 0.00 0.00 0.00 0.00 0.00 0.00 0.07 0.07 0.03 0.06 0.09 0.08 0.09 0.06 0.02 0.02 0.03 0.08 0.10 0.12 0.24 0.25 0.44 0.28 0.27 0.21 0.12 0.04 0.03 0.01
0.00 0.00 0.00 0.00 0.00 0.00 0.00 0.00 0.03 0.02 0.01 0.02 0.03 0.07 0.05 0.08 0.11 0.06 0.04 0.08 0.12 0.11 0.21 0.20 0.37 0.44 0.22 0.14 0.09 0.05 0.02 0.00
0.00 0.00 0.00 0.00 0.00 0.00 0.00 0.00 0.03 0.03 0.03 0.10 0.23 0.45 0.44 0.21 0.09 0.07 0.05 0.03 0.05 0.11 0.09 0.14 0.18 0.36 0.40 0.54 0.28 0.13 0.10 0.02
0.00 0.00 0.00 0.00 0.00 0.00 0.00 0.00 0.03 0.11 0.15 0.16 0.19 0.15 0.08 0.06 0.06 0.05 0.05 0.05 0.06 0.10 0.11 0.11 0.14 0.20 0.25 0.30 0.41 0.24 0.08 0.01
0.00 0.00 0.00 0.00 0.00 0.00 0.00 0.02 0.07 0.21 0.47 0.39 0.42 0.42 0.24 0.26 0.20 0.12 0.16 0.14 0.13 0.18 0.14 0.07 0.11 0.12 0.17 0.28 0.18 0.15 0.09 0.05
0.00 0.00 0.00 0.00 0.00 0.00 0.00 0.05 0.08 0.17 0.31 0.66 0.87 0.81 0.76 0.77 0.42 0.17 0.27 0.31 0.30 0.21 0.12 0.07 0.09 0.14 0.10 0.22 0.42 0.23 0.16 0.13
0.00 0.00 0.00 0.00 0.00 0.00 0.00 0.01 0.02 0.03 0.07 0.31 0.57 0.68 0.95 0.79 0.76 0.79 0.56 0.37 0.27 0.26 0.21 0.12 0.08 0.11 0.17 0.27 0.24 0.20 0.16 0.07
0.00 0.00 0.00 0.00 0.00 0.00 0.00 0.00 0.00 0.03 0.05 0.16 0.29 0.38 0.51 0.62 0.62 0.74 0.95 0.82 0.47 0.50 0.63 0.37 0.26 0.25 0.32 0.28 0.21 0.32 0.31 0.13
0.00 0.00 0.00 0.00 0.00 0.00 0.00 0.00 0.00 0.02 0.05 0.16 0.38 0.55 0.68 0.63 0.50 0.76 0.96 0.99 0.82 0.85 0.91 0.73 0.56 0.40 0.38 0.43 0.32 0.25 0.27 0.23
0.02 0.01 0.00 0.00 0.00 0.01 0.01 0.02 0.02 0.03 0.07 0.15 0.16 0.27 0.54 0.92 1.08 1.00 0.73 0.81 0.98 1.06 1.06 0.97 0.89 0.68 0.48 0.41 0.39 0.32 0.25 0.20
0.06 0.03 0.02 0.01 0.01 0.01 0.01 0.02 0.04 0.07 0.10 0.16 0.20 0.30 0.34 0.52 0.66 0.97 1.24 0.98 0.62 0.73 1.05 1.07 0.89 0.84 0.66 0.50 0.43 0.38 0.34 0.34
0.34 0.23 0.12 0.05 0.02 0.02 0.00 0.01 0.01 0.03 0.08 0.13 0.16 0.25 0.35 0.49 0.53 0.56 0.72 0.96 1.44 1.35 1.02 1.18 1.45 1.15 0.85 0.84 0.73 0.51 0.40 0.44
0.94 0.79 0.57 0.30 0.15 0.06 0.04 0.01 0.01 0.01 0.01 0.03 0.05 0.09 0.17 0.23 0.33 0.37 0.38 0.48 0.73 1.34 1.81 1.74 1.56 1.60 1.83 1.61 1.08 1.09 0.94 0.60
1.10 0.80 0.69 0.54 0.40 0.22 0.11 0.05 0.02 0.01 0.01 0.02 0.02 0.03 0.04 0.06 0.08 0.14 0.22 0.28 0.35 0.56 1.19 1.41 1.46 1.61 1.71 1.77 1.80 1.57 1.43 1.44
0.47 0.58 0.44 0.37 0.30 0.23 0.15 0.10 0.08 0.05 0.02 0.02 0.02 0.02 0.02 0.02 0.02 0.02 0.05 0.20 0.30 0.38 0.32 0.38 0.57 1.00 1.25 1.43 1.53 1.55 1.40 1.03
0.02 0.07 0.16 0.19 0.25 0.26 0.22 0.14 0.08 0.07 0.08 0.05 0.04 0.04 0.02 0.01 0.01 0.02 0.03 0.02 0.09 0.23 0.37 0.33 0.32 0.35 0.53 0.57 0.86 1.41 1.94 2.11
0.00 0.00 0.01 0.04 0.10 0.13 0.17 0.17 0.12 0.08 0.07 0.06 0.05 0.04 0.03 0.01 0.02 0.01 0.02 0.07 0.05 0.02 0.05 0.12 0.20 0.26 0.65 0.55 0.68 0.60 0.78 1.02
0.00 0.00 0.00 0.00 0.00 0.02 0.04 0.07 0.10 0.10 0.08 0.05 0.04 0.03 0.02 0.02 0.01 0.00 0.00 0.00 0.03 0.06 0.03 0.02 0.03 0.14 0.45 0.49 0.75 0.68 0.72 0.87